GSAT-18 (41793 NORAD) Tracking and Keplerian Element Data

This shows tracking and keplerian element data for the satellite.

Feedback or suggestion? Click here.




ElementValue
Catalog41793
NameGSAT-18
Epoch Orbit654
Epoch Day197.9759826
Epoch Year2018
RAAN270.8562
Inclination0.0621
Eccentricity0.0008395
Argument of Perigee180.1949
Mean Anonmoly269.0273
Mean Motion1.00271522
Decay Rate-9.7E-07
L11 41793U 16060A 18197.97598260 -.00000097 00000-0 00000-0 0 9996
L22 41793 0.0621 270.8562 0008395 180.1949 269.0273 1.00271522 6546

Live tracking and technical data element details for GSAT-18 (NORAD 41793). GSAT-18 can be tracked NOW for your location showing map with azimuth and elevation plus other details from your city location.

Track the satellite on the map from your city or location and see movement details for azimuth, elevation, latitude, longitude, range, height, and movement on the map or in text.







IsCatalogInMostPopularTable: catalog: 41793, numindb: 73
Update: records affected: 1



GetName: 41793 GSAT-18

Hit Count: updated at: Fri, 20 Jul 2018 20:26:24 GMT